| time (UTC) | temp C | wind direction | speed KPH | gust KPH | rain 1hr cm | rain 24hr cm | rain mn cm | humidity % | barometer mb |
| 20260507144522 | 11 | 248 | 4.8 | 14.5 | 0.00 | 0.00 | 0.00 | 50 | 1016.7 |
| 20260507144022 | 11 | 256 | 3.2 | 14.5 | 0.00 | 0.00 | 0.00 | 48 | 1016.7 |
| 20260507143500 | 11 | 354 | 3.2 | 12.9 | 0.00 | 0.00 | 0.00 | 49 | 1016.7 |
| 20260507143000 | 11 | 359 | 4.8 | 14.5 | 0.00 | 0.00 | 0.00 | 49 | 1016.7 |
| 20260507142500 | 11 | 332 | 3.2 | 14.5 | 0.00 | 0.00 | 0.00 | 50 | 1016.9 |
| 20260507142001 | 11 | 309 | 3.2 | 12.9 | 0.00 | 0.00 | 0.00 | 50 | 1016.9 |
| 20260507141501 | 11 | 289 | 4.8 | 12.9 | 0.00 | 0.00 | 0.00 | 53 | 1017.0 |
| 20260507141000 | 11 | 319 | 4.8 | 12.9 | 0.00 | 0.00 | 0.00 | 49 | 1017.0 |
| 20260507140500 | 10 | 358 | 4.8 | 12.9 | 0.00 | 0.00 | 0.00 | 53 | 1017.0 |
| 20260507140001 | 10 | 2 | 4.8 | 14.5 | 0.00 | 0.00 | 0.00 | 53 | 1017.0 |
| 20260507135502 | 10 | 2 | 4.8 | 20.9 | 0.00 | 0.00 | 0.00 | 56 | 1017.0 |
| 20260507135021 | 10 | 352 | 4.8 | 20.9 | 0.00 | 0.00 | 0.00 | 56 | 1016.9 |
| 20260507134500 | 10 | 308 | 3.2 | 8.0 | 0.00 | 0.00 | 0.00 | 57 | 1016.8 |
| 20260507134022 | 10 | 324 | 3.2 | 11.3 | 0.00 | 0.00 | 0.00 | 56 | 1016.9 |
| 20260507133501 | 10 | 344 | 3.2 | 14.5 | 0.00 | 0.00 | 0.00 | 56 | 1016.9 |
| 20260507133001 | 10 | 359 | 3.2 | 14.5 | 0.00 | 0.00 | 0.00 | 55 | 1016.9 |
| 20260507132500 | 10 | 354 | 3.2 | 16.1 | 0.00 | 0.00 | 0.00 | 57 | 1016.9 |
| 20260507132000 | 10 | 357 | 3.2 | 16.1 | 0.00 | 0.00 | 0.00 | 58 | 1016.9 |
| 20260507131522 | 10 | 5 | 3.2 | 11.3 | 0.00 | 0.00 | 0.00 | 59 | 1017.0 |
| 20260507131021 | 9 | 351 | 3.2 | 11.3 | 0.00 | 0.00 | 0.00 | 59 | 1017.0 |
| 20260507130521 | 9 | 324 | 3.2 | 9.7 | 0.00 | 0.00 | 0.00 | 60 | 1016.8 |
| 20260507130001 | 9 | 357 | 3.2 | 11.3 | 0.00 | 0.00 | 0.00 | 60 | 1016.9 |
| 20260507125501 | 8 | 2 | 3.2 | 11.3 | 0.00 | 0.00 | 0.00 | 63 | 1016.9 |
| 20260507125000 | 8 | 335 | 1.6 | 6.4 | 0.00 | 0.00 | 0.00 | 66 | 1016.8 |
| 20260507124501 | 8 | 292 | 1.6 | 4.8 | 0.00 | 0.00 | 0.00 | 67 | 1016.9 |
| 20260507124001 | 8 | 342 | 3.2 | 6.4 | 0.00 | 0.00 | 0.00 | 68 | 1016.9 |
| 20260507123521 | 8 | 344 | 1.6 | 6.4 | 0.00 | 0.00 | 0.00 | 68 | 1017.0 |
| 20260507123001 | 8 | 351 | 1.6 | 6.4 | 0.00 | 0.00 | 0.00 | 69 | 1017.0 |
| 20260507122522 | 7 | 356 | 1.6 | 6.4 | 0.00 | 0.00 | 0.00 | 71 | 1017.0 |
| 20260507122001 | 7 | 338 | 1.6 | 6.4 | 0.00 | 0.00 | 0.00 | 71 | 1017.0 |
| 20260507121521 | 7 | 315 | 1.6 | 4.8 | 0.00 | 0.00 | 0.00 | 73 | 1017.1 |
| 20260507121001 | 7 | 284 | 0.0 | 4.8 | 0.00 | 0.00 | 0.00 | 74 | 1017.0 |
| 20260507120501 | 7 | 237 | 1.6 | 4.8 | 0.00 | 0.00 | 0.00 | 76 | 1016.9 |
| 20260507120001 | 6 | 245 | 1.6 | 4.8 | 0.00 | 0.00 | 0.00 | 77 | 1017.0 |
| 20260507115500 | 6 | 274 | 1.6 | 3.2 | 0.00 | 0.00 | 0.00 | 78 | 1017.0 |
| 20260507115000 | 6 | 282 | 1.6 | 3.2 | 0.00 | 0.00 | 0.00 | 81 | 1017.0 |
| 20260507114501 | 5 | 278 | 0.0 | 3.2 | 0.00 | 0.00 | 0.00 | 81 | 1016.9 |
| 20260507114001 | 5 | 273 | 0.0 | 3.2 | 0.00 | 0.00 | 0.00 | 84 | 1016.9 |
| 20260507113501 | 5 | 287 | 0.0 | 3.2 | 0.00 | 0.00 | 0.00 | 85 | 1016.8 |
| 20260507113001 | 5 | 3 | 0.0 | 3.2 | 0.00 | 0.00 | 0.00 | 86 | 1016.9 |
| 20260507112501 | 4 | 27 | 0.0 | 1.6 | 0.00 | 0.00 | 0.00 | 87 | 1017.0 |
| 20260507112022 | 4 | 7 | 0.0 | 1.6 | 0.00 | 0.00 | 0.00 | 88 | 1016.8 |
| 20260507111522 | 4 | 5 | 0.0 | 1.6 | 0.00 | 0.00 | 0.00 | 88 | 1016.8 |
| 20260507111001 | 4 | 5 | 0.0 | 1.6 | 0.00 | 0.00 | 0.00 | 89 | 1016.8 |
| 20260507110522 | 4 | 5 | 0.0 | 1.6 | 0.00 | 0.00 | 0.00 | 89 | 1016.6 |
| 20260507110000 | 4 | 5 | 0.0 | 1.6 | 0.00 | 0.00 | 0.00 | 89 | 1016.5 |
| 20260507105501 | 4 | 5 | 0.0 | 1.6 | 0.00 | 0.00 | 0.00 | 89 | 1016.5 |
| 20260507105001 | 3 | 5 | 0.0 | 1.6 | 0.00 | 0.00 | 0.00 | 89 | 1016.4 |
| 20260507104501 | 3 | 5 | 0.0 | 1.6 | 0.00 | 0.00 | 0.00 | 89 | 1016.4 |
| 20260507104022 | 3 | 5 | 0.0 | 1.6 | 0.00 | 0.00 | 0.00 | 89 | 1016.4 |
| 20260507103501 | 4 | 5 | 0.0 | 1.6 | 0.00 | 0.00 | 0.00 | 89 | 1016.4 |
| 20260507103000 | 4 | 5 | 0.0 | 1.6 | 0.00 | 0.00 | 0.00 | 89 | 1016.3 |
| 20260507102501 | 4 | 5 | 0.0 | 1.6 | 0.00 | 0.00 | 0.00 | 89 | 1016.3 |
| 20260507102001 | 4 | 5 | 0.0 | 1.6 | 0.00 | 0.00 | 0.00 | 89 | 1016.3 |
| 20260507101500 | 4 | 5 | 0.0 | 1.6 | 0.00 | 0.00 | 0.00 | 89 | 1016.4 |
| 20260507101001 | 4 | 5 | 0.0 | 1.6 | 0.00 | 0.00 | 0.00 | 89 | 1016.3 |
| 20260507100501 | 4 | 5 | 0.0 | 1.6 | 0.00 | 0.00 | 0.00 | 89 | 1016.3 |
| 20260507100001 | 4 | 5 | 0.0 | 1.6 | 0.00 | 0.00 | 0.00 | 89 | 1016.3 |
| 20260507095500 | 4 | 5 | 0.0 | 1.6 | 0.00 | 0.00 | 0.00 | 90 | 1016.3 |
| 20260507095001 | 4 | 0 | 0.0 | 0.0 | 0.00 | 0.00 | 0.00 | 90 | 1016.3 |
| 20260507094501 | 4 | 0 | 0.0 | 0.0 | 0.00 | 0.00 | 0.00 | 89 | 1016.4 |
| 20260507094001 | 4 | 0 | 0.0 | 0.0 | 0.00 | 0.00 | 0.00 | 89 | 1016.4 |
| 20260507093501 | 4 | 5 | 0.0 | 1.6 | 0.00 | 0.00 | 0.00 | 89 | 1016.4 |
| 20260507093001 | 5 | 5 | 0.0 | 1.6 | 0.00 | 0.00 | 0.00 | 89 | 1016.4 |
| 20260507092502 | 5 | 5 | 0.0 | 1.6 | 0.00 | 0.00 | 0.00 | 89 | 1016.3 |
| 20260507092000 | 5 | 5 | 0.0 | 1.6 | 0.00 | 0.00 | 0.00 | 89 | 1016.2 |
| 20260507091501 | 5 | 5 | 0.0 | 1.6 | 0.00 | 0.00 | 0.00 | 89 | 1016.1 |
| 20260507091022 | 5 | 5 | 0.0 | 1.6 | 0.00 | 0.00 | 0.00 | 89 | 1016.1 |
| 20260507090501 | 5 | 5 | 0.0 | 1.6 | 0.00 | 0.00 | 0.00 | 89 | 1016.1 |
| 20260507090001 | 5 | 5 | 0.0 | 1.6 | 0.00 | 0.00 | 0.00 | 89 | 1016.0 |
| 20260507085501 | 5 | 5 | 0.0 | 1.6 | 0.00 | 0.00 | 0.00 | 89 | 1016.0 |
| 20260507085001 | 5 | 5 | 0.0 | 1.6 | 0.00 | 0.00 | 0.00 | 90 | 1016.0 |
| 20260507084501 | 5 | 5 | 0.0 | 1.6 | 0.00 | 0.00 | 0.00 | 90 | 1015.9 |
| 20260507084001 | 5 | 5 | 0.0 | 1.6 | 0.00 | 0.00 | 0.00 | 90 | 1015.9 |
| 20260507083501 | 5 | 5 | 0.0 | 1.6 | 0.00 | 0.00 | 0.00 | 90 | 1015.9 |
| 20260507083001 | 5 | 5 | 0.0 | 1.6 | 0.00 | 0.00 | 0.00 | 90 | 1015.8 |
| 20260507082522 | 5 | 5 | 0.0 | 1.6 | 0.00 | 0.00 | 0.00 | 90 | 1015.8 |
| 20260507082021 | 5 | 5 | 0.0 | 1.6 | 0.00 | 0.00 | 0.00 | 90 | 1015.8 |
| 20260507081500 | 5 | 5 | 0.0 | 1.6 | 0.00 | 0.00 | 0.00 | 90 | 1015.8 |
| 20260507081001 | 5 | 5 | 0.0 | 1.6 | 0.00 | 0.00 | 0.00 | 90 | 1015.8 |
| 20260507080501 | 5 | 5 | 0.0 | 1.6 | 0.00 | 0.00 | 0.00 | 89 | 1015.8 |
| 20260507080022 | 5 | 5 | 0.0 | 1.6 | 0.00 | 0.00 | 0.00 | 89 | 1015.7 |
| 20260507075501 | 5 | 5 | 0.0 | 1.6 | 0.00 | 0.03 | 0.00 | 89 | 1015.8 |
| 20260507075001 | 5 | 5 | 0.0 | 1.6 | 0.00 | 0.03 | 0.00 | 90 | 1015.7 |
| 20260507074501 | 5 | 5 | 0.0 | 1.6 | 0.00 | 0.03 | 0.00 | 90 | 1015.7 |
| 20260507074000 | 5 | 5 | 0.0 | 1.6 | 0.00 | 0.03 | 0.00 | 90 | 1015.7 |
| 20260507073501 | 5 | 5 | 0.0 | 1.6 | 0.00 | 0.03 | 0.00 | 90 | 1015.7 |
| 20260507073001 | 5 | 5 | 0.0 | 1.6 | 0.00 | 0.05 | 0.00 | 90 | 1015.7 |
| 20260507072501 | 5 | 5 | 0.0 | 1.6 | 0.00 | 0.08 | 0.00 | 90 | 1015.8 |
| 20260507072001 | 6 | 5 | 0.0 | 1.6 | 0.00 | 0.10 | 0.00 | 90 | 1015.7 |
| 20260507071501 | 6 | 5 | 0.0 | 1.6 | 0.00 | 0.13 | 0.00 | 89 | 1015.6 |
| 20260507071001 | 6 | 5 | 0.0 | 1.6 | 0.00 | 0.13 | 0.00 | 89 | 1015.6 |
| 20260507070501 | 6 | 5 | 0.0 | 1.6 | 0.00 | 0.13 | 0.00 | 89 | 1015.6 |
| 20260507070001 | 6 | 5 | 0.0 | 1.6 | 0.00 | 0.15 | 0.00 | 89 | 1015.8 |
| 20260507065522 | 6 | 5 | 0.0 | 1.6 | 0.00 | 0.18 | 0.00 | 89 | 1015.7 |
| 20260507065001 | 6 | 5 | 0.0 | 1.6 | 0.00 | 0.20 | 0.00 | 89 | 1015.7 |
| 20260507064501 | 6 | 5 | 0.0 | 1.6 | 0.00 | 0.23 | 0.00 | 89 | 1015.7 |
| 20260507064022 | 6 | 5 | 0.0 | 1.6 | 0.00 | 0.25 | 0.00 | 89 | 1015.8 |
| 20260507063501 | 6 | 5 | 0.0 | 1.6 | 0.00 | 0.25 | 0.00 | 89 | 1015.8 |
| 20260507063022 | 6 | 5 | 0.0 | 1.6 | 0.00 | 0.28 | 0.00 | 89 | 1015.9 |
| 20260507062501 | 6 | 0 | 0.0 | 0.0 | 0.00 | 0.28 | 0.00 | 89 | 1015.9 |
| 20260507062001 | 6 | 0 | 0.0 | 0.0 | 0.00 | 0.28 | 0.00 | 89 | 1015.9 |
| 20260507061502 | 6 | 0 | 0.0 | 0.0 | 0.00 | 0.28 | 0.00 | 89 | 1015.9 |
| 20260507061001 | 6 | 0 | 0.0 | 0.0 | 0.00 | 0.30 | 0.00 | 89 | 1015.8 |
| 20260507060501 | 6 | 0 | 0.0 | 0.0 | 0.00 | 0.30 | 0.00 | 89 | 1015.8 |
| 20260507060001 | 6 | 0 | 0.0 | 0.0 | 0.00 | 0.33 | 0.00 | 89 | 1015.8 |
| 20260507055501 | 6 | 0 | 0.0 | 0.0 | 0.00 | 0.36 | 0.00 | 89 | 1015.9 |
| 20260507055022 | 6 | 0 | 0.0 | 0.0 | 0.00 | 0.38 | 0.00 | 89 | 1015.9 |
| 20260507054523 | 6 | 0 | 0.0 | 0.0 | 0.00 | 0.41 | 0.00 | 89 | 1015.9 |
| 20260507054001 | 6 | 0 | 0.0 | 0.0 | 0.00 | 0.43 | 0.00 | 89 | 1015.9 |
| 20260507053522 | 6 | 0 | 0.0 | 0.0 | 0.00 | 0.48 | 0.00 | 89 | 1016.0 |
| 20260507053001 | 6 | 0 | 0.0 | 0.0 | 0.00 | 0.51 | 0.00 | 89 | 1016.0 |
| 20260507052501 | 6 | 0 | 0.0 | 0.0 | 0.00 | 0.56 | 0.00 | 89 | 1016.0 |
| 20260507052001 | 6 | 0 | 0.0 | 0.0 | 0.00 | 0.61 | 0.00 | 89 | 1015.9 |
| 20260507051522 | 6 | 0 | 0.0 | 0.0 | 0.00 | 0.64 | 0.00 | 89 | 1015.8 |
| 20260507051001 | 6 | 0 | 0.0 | 0.0 | 0.00 | 0.64 | 0.00 | 89 | 1015.8 |
| 20260507050501 | 6 | 0 | 0.0 | 0.0 | 0.00 | 0.66 | 0.00 | 88 | 1015.8 |
| 20260507050001 | 6 | 0 | 0.0 | 0.0 | 0.00 | 0.74 | 0.00 | 88 | 1016.0 |
| 20260507045501 | 6 | 0 | 0.0 | 0.0 | 0.00 | 0.79 | 0.00 | 88 | 1016.0 |
| 20260507045001 | 6 | 0 | 0.0 | 0.0 | 0.00 | 0.81 | 0.00 | 89 | 1016.0 |
| 20260507044501 | 6 | 0 | 0.0 | 0.0 | 0.00 | 0.84 | 0.00 | 89 | 1016.0 |
| 20260507044001 | 6 | 0 | 0.0 | 0.0 | 0.00 | 0.86 | 0.00 | 88 | 1016.1 |
| 20260507043522 | 6 | 0 | 0.0 | 0.0 | 0.00 | 0.89 | 0.00 | 88 | 1016.1 |
| 20260507043001 | 6 | 0 | 0.0 | 0.0 | 0.00 | 0.89 | 0.00 | 88 | 1016.0 |
| 20260507042501 | 7 | 0 | 0.0 | 0.0 | 0.00 | 0.91 | 0.00 | 88 | 1015.9 |
| 20260507042001 | 7 | 0 | 0.0 | 0.0 | 0.00 | 0.94 | 0.00 | 88 | 1015.9 |
| 20260507041522 | 7 | 0 | 0.0 | 0.0 | 0.00 | 0.97 | 0.00 | 88 | 1016.0 |
| 20260507041001 | 7 | 0 | 0.0 | 0.0 | 0.00 | 1.02 | 0.00 | 88 | 1016.0 |
| 20260507040501 | 7 | 0 | 0.0 | 0.0 | 0.00 | 1.09 | 0.00 | 87 | 1015.9 |
| 20260507040001 | 7 | 0 | 0.0 | 0.0 | 0.00 | 1.14 | 0.00 | 87 | 1015.8 |
| 20260507035501 | 7 | 0 | 0.0 | 0.0 | 0.00 | 1.14 | 1.14 | 87 | 1015.9 |
| 20260507035022 | 7 | 0 | 0.0 | 0.0 | 0.00 | 1.14 | 1.14 | 86 | 1015.8 |
| 20260507034501 | 7 | 0 | 0.0 | 0.0 | 0.00 | 1.14 | 1.14 | 86 | 1015.8 |
| 20260507034022 | 7 | 0 | 0.0 | 0.0 | 0.00 | 1.19 | 1.14 | 86 | 1015.9 |
| 20260507033501 | 7 | 0 | 0.0 | 0.0 | 0.00 | 1.22 | 1.14 | 86 | 1015.9 |
| 20260507033001 | 7 | 0 | 0.0 | 0.0 | 0.00 | 1.24 | 1.14 | 86 | 1015.9 |
| 20260507032501 | 7 | 0 | 0.0 | 0.0 | 0.00 | 1.24 | 1.14 | 86 | 1015.8 |
| 20260507032001 | 7 | 0 | 0.0 | 0.0 | 0.00 | 1.24 | 1.14 | 86 | 1015.8 |
| 20260507031501 | 7 | 0 | 0.0 | 0.0 | 0.00 | 1.24 | 1.14 | 85 | 1015.9 |
| 20260507031001 | 7 | 0 | 0.0 | 0.0 | 0.00 | 1.24 | 1.14 | 85 | 1016.0 |
| 20260507030501 | 7 | 0 | 0.0 | 0.0 | 0.00 | 1.24 | 1.14 | 85 | 1015.9 |
| 20260507030001 | 7 | 0 | 0.0 | 0.0 | 0.00 | 1.24 | 1.14 | 85 | 1016.0 |
| 20260507025501 | 7 | 0 | 0.0 | 0.0 | 0.00 | 1.24 | 1.14 | 85 | 1016.0 |
| 20260507025001 | 7 | 0 | 0.0 | 0.0 | 0.00 | 1.24 | 1.14 | 85 | 1015.9 |
| 20260507024501 | 8 | 0 | 0.0 | 0.0 | 0.00 | 1.24 | 1.14 | 84 | 1016.0 |
| 20260507024001 | 8 | 0 | 0.0 | 0.0 | 0.00 | 1.24 | 1.14 | 84 | 1015.9 |
| 20260507023501 | 8 | 0 | 0.0 | 0.0 | 0.00 | 1.27 | 1.14 | 84 | 1015.8 |
| 20260507023002 | 8 | 0 | 0.0 | 0.0 | 0.00 | 1.30 | 1.14 | 83 | 1015.8 |
| 20260507022501 | 8 | 0 | 0.0 | 0.0 | 0.00 | 1.30 | 1.14 | 82 | 1015.8 |
| 20260507022001 | 8 | 0 | 0.0 | 0.0 | 0.00 | 1.30 | 1.14 | 81 | 1015.7 |
| 20260507021501 | 8 | 0 | 0.0 | 0.0 | 0.00 | 1.30 | 1.14 | 81 | 1015.8 |
| 20260507021001 | 8 | 0 | 0.0 | 0.0 | 0.00 | 1.30 | 1.14 | 80 | 1015.7 |
| 20260507020501 | 8 | 0 | 0.0 | 0.0 | 0.00 | 1.30 | 1.14 | 80 | 1015.7 |
| 20260507020001 | 8 | 0 | 0.0 | 0.0 | 0.00 | 1.30 | 1.14 | 80 | 1015.6 |
| 20260507015501 | 9 | 0 | 0.0 | 0.0 | 0.00 | 1.32 | 1.14 | 79 | 1015.5 |
| 20260507015001 | 9 | 0 | 0.0 | 0.0 | 0.00 | 1.35 | 1.14 | 79 | 1015.5 |
| 20260507014501 | 9 | 0 | 0.0 | 0.0 | 0.00 | 1.40 | 1.14 | 77 | 1015.5 |
| 20260507014023 | 9 | 0 | 0.0 | 0.0 | 0.00 | 1.40 | 1.14 | 76 | 1015.5 |
| 20260507013501 | 10 | 0 | 0.0 | 0.0 | 0.00 | 1.42 | 1.14 | 78 | 1015.3 |
| 20260507013001 | 10 | 0 | 0.0 | 0.0 | 0.00 | 1.42 | 1.14 | 76 | 1015.3 |
| 20260507012501 | 10 | 0 | 0.0 | 0.0 | 0.00 | 1.45 | 1.14 | 76 | 1015.2 |
| 20260507012001 | 10 | 0 | 0.0 | 0.0 | 0.00 | 1.45 | 1.14 | 77 | 1015.2 |
| 20260507011523 | 10 | 0 | 0.0 | 0.0 | 0.00 | 1.45 | 1.14 | 77 | 1015.0 |
| 20260507011001 | 10 | 0 | 0.0 | 0.0 | 0.00 | 1.45 | 1.14 | 75 | 1015.0 |
| 20260507010501 | 11 | 0 | 0.0 | 0.0 | 0.00 | 1.47 | 1.14 | 72 | 1015.0 |
| 20260507010002 | 11 | 0 | 0.0 | 0.0 | 0.00 | 1.50 | 1.14 | 72 | 1015.1 |
| 20260507005502 | 11 | 0 | 0.0 | 0.0 | 0.00 | 1.55 | 1.14 | 71 | 1015.2 |
| 20260507005022 | 11 | 0 | 0.0 | 0.0 | 0.00 | 1.57 | 1.14 | 72 | 1015.0 |
| 20260507004501 | 11 | 0 | 0.0 | 0.0 | 0.00 | 1.63 | 1.14 | 70 | 1015.1 |
| 20260507004022 | 12 | 0 | 0.0 | 0.0 | 0.00 | 1.68 | 1.14 | 69 | 1015.1 |
| 20260507003502 | 12 | 5 | 0.0 | 1.6 | 0.00 | 1.70 | 1.14 | 66 | 1015.1 |
| 20260507003023 | 12 | 5 | 0.0 | 1.6 | 0.00 | 1.70 | 1.14 | 65 | 1015.0 |
| 20260507002502 | 12 | 5 | 0.0 | 1.6 | 0.00 | 1.70 | 1.14 | 66 | 1014.9 |
| 20260507002001 | 12 | 5 | 0.0 | 1.6 | 0.00 | 1.70 | 1.14 | 65 | 1014.8 |
| 20260507001501 | 13 | 2 | 0.0 | 4.8 | 0.00 | 1.70 | 1.14 | 60 | 1014.8 |
| 20260507001022 | 13 | 354 | 1.6 | 4.8 | 0.00 | 1.70 | 1.14 | 61 | 1014.8 |
| 20260507000501 | 13 | 1 | 1.6 | 4.8 | 0.00 | 1.70 | 1.14 | 58 | 1014.6 |
| 20260507000002 | 13 | 6 | 1.6 | 6.4 | 0.00 | 1.73 | 1.14 | 59 | 1014.7 |
| 20260506235501 | 13 | 346 | 1.6 | 6.4 | 0.00 | 1.73 | 1.14 | 58 | 1014.6 |
| 20260506235001 | 13 | 295 | 1.6 | 6.4 | 0.00 | 1.75 | 1.14 | 58 | 1014.5 |
| 20260506234501 | 13 | 307 | 3.2 | 8.0 | 0.00 | 1.75 | 1.14 | 58 | 1014.4 |
| 20260506234001 | 13 | 338 | 3.2 | 14.5 | 0.00 | 1.75 | 1.14 | 58 | 1014.4 |
| 20260506233501 | 14 | 321 | 3.2 | 14.5 | 0.00 | 1.75 | 1.14 | 56 | 1014.5 |
| 20260506233001 | 14 | 288 | 3.2 | 9.7 | 0.00 | 1.75 | 1.14 | 55 | 1014.5 |
| 20260506232501 | 14 | 287 | 1.6 | 9.7 | 0.00 | 1.75 | 1.14 | 55 | 1014.4 |
| 20260506232022 | 14 | 301 | 3.2 | 9.7 | 0.00 | 1.75 | 1.14 | 54 | 1014.4 |
| 20260506231501 | 14 | 352 | 4.8 | 12.9 | 0.00 | 1.78 | 1.14 | 54 | 1014.2 |
| 20260506231002 | 15 | 4 | 4.8 | 12.9 | 0.00 | 1.78 | 1.14 | 53 | 1014.1 |
| 20260506230523 | 15 | 354 | 3.2 | 9.7 | 0.00 | 1.80 | 1.14 | 53 | 1014.1 |
| 20260506230022 | 15 | 326 | 4.8 | 11.3 | 0.00 | 1.80 | 1.14 | 52 | 1014.2 |
| 20260506225501 | 15 | 346 | 4.8 | 14.5 | 0.00 | 1.80 | 1.14 | 53 | 1014.2 |
| 20260506225001 | 15 | 4 | 4.8 | 14.5 | 0.00 | 1.80 | 1.14 | 54 | 1014.3 |
| 20260506224501 | 15 | 10 | 4.8 | 14.5 | 0.00 | 1.80 | 1.14 | 55 | 1014.4 |
| 20260506224002 | 15 | 350 | 3.2 | 8.0 | 0.00 | 1.80 | 1.14 | 55 | 1014.3 |
| 20260506223502 | 14 | 278 | 3.2 | 8.0 | 0.00 | 1.80 | 1.14 | 55 | 1014.2 |
| 20260506223002 | 14 | 309 | 3.2 | 8.0 | 0.00 | 1.80 | 1.14 | 55 | 1014.4 |
| 20260506222501 | 14 | 345 | 3.2 | 8.0 | 0.00 | 1.80 | 1.14 | 55 | 1014.5 |
| 20260506222001 | 14 | 313 | 1.6 | 8.0 | 0.00 | 1.80 | 1.14 | 55 | 1014.5 |
| 20260506221501 | 14 | 291 | 1.6 | 6.4 | 0.00 | 1.80 | 1.14 | 55 | 1014.5 |
| 20260506221001 | 14 | 312 | 1.6 | 4.8 | 0.00 | 1.80 | 1.14 | 54 | 1014.6 |
| 20260506220501 | 14 | 295 | 1.6 | 4.8 | 0.00 | 1.80 | 1.14 | 54 | 1014.6 |
| 20260506220002 | 14 | 264 | 1.6 | 6.4 | 0.00 | 1.80 | 1.14 | 53 | 1014.7 |
| 20260506215501 | 14 | 299 | 1.6 | 6.4 | 0.00 | 1.80 | 1.14 | 53 | 1014.7 |
| 20260506215001 | 14 | 355 | 1.6 | 6.4 | 0.00 | 1.80 | 1.14 | 54 | 1014.7 |
| 20260506214523 | 14 | 6 | 3.2 | 8.0 | 0.00 | 1.80 | 1.14 | 54 | 1014.8 |
| 20260506214002 | 14 | 7 | 3.2 | 8.0 | 0.00 | 1.80 | 1.14 | 54 | 1014.7 |
| 20260506213501 | 14 | 4 | 3.2 | 8.0 | 0.00 | 1.80 | 1.14 | 53 | 1014.6 |
| 20260506213001 | 14 | 350 | 3.2 | 9.7 | 0.00 | 1.80 | 1.14 | 55 | 1014.5 |
| 20260506212502 | 14 | 354 | 4.8 | 12.9 | 0.00 | 1.80 | 1.14 | 54 | 1014.5 |
| 20260506212001 | 14 | 342 | 3.2 | 12.9 | 0.00 | 1.80 | 1.14 | 55 | 1014.4 |
| 20260506211501 | 14 | 277 | 1.6 | 8.0 | 0.00 | 1.80 | 1.14 | 54 | 1014.5 |
| 20260506211001 | 15 | 292 | 1.6 | 6.4 | 0.00 | 1.80 | 1.14 | 52 | 1014.4 |
| 20260506210502 | 15 | 346 | 3.2 | 8.0 | 0.00 | 1.83 | 1.14 | 52 | 1014.2 |
| 20260506210001 | 15 | 348 | 3.2 | 8.0 | 0.00 | 1.83 | 1.14 | 52 | 1014.1 |
| 20260506205501 | 15 | 344 | 3.2 | 9.7 | 0.00 | 1.85 | 1.14 | 51 | 1014.1 |
| 20260506205002 | 15 | 350 | 3.2 | 9.7 | 0.00 | 1.85 | 1.14 | 52 | 1014.1 |
| 20260506204502 | 15 | 354 | 3.2 | 12.9 | 0.00 | 1.85 | 1.14 | 50 | 1014.1 |
| 20260506204001 | 15 | 350 | 3.2 | 12.9 | 0.00 | 1.85 | 1.14 | 51 | 1014.2 |
| 20260506203501 | 15 | 320 | 3.2 | 12.9 | 0.00 | 1.85 | 1.14 | 54 | 1014.3 |
| 20260506203001 | 14 | 259 | 3.2 | 9.7 | 0.00 | 1.88 | 1.14 | 52 | 1014.2 |
| 20260506202502 | 14 | 269 | 3.2 | 12.9 | 0.00 | 1.88 | 1.14 | 53 | 1014.3 |
| 20260506202002 | 14 | 288 | 3.2 | 12.9 | 0.00 | 1.91 | 1.14 | 52 | 1014.3 |
| 20260506201501 | 14 | 297 | 3.2 | 9.7 | 0.00 | 1.91 | 1.14 | 53 | 1014.5 |
| 20260506201002 | 15 | 325 | 3.2 | 11.3 | 0.00 | 1.93 | 1.14 | 54 | 1014.3 |
| 20260506200502 | 14 | 309 | 3.2 | 11.3 | 0.00 | 1.93 | 1.14 | 54 | 1014.2 |
| 20260506200023 | 14 | 287 | 3.2 | 11.3 | 0.00 | 1.96 | 1.14 | 52 | 1014.4 |
| 20260506195501 | 15 | 331 | 3.2 | 8.0 | 0.00 | 1.96 | 1.14 | 52 | 1014.4 |
| 20260506195022 | 15 | 5 | 3.2 | 12.9 | 0.00 | 1.96 | 1.14 | 55 | 1014.2 |
| 20260506194502 | 15 | 357 | 4.8 | 12.9 | 0.00 | 1.98 | 1.14 | 50 | 1014.3 |
| 20260506194001 | 15 | 350 | 3.2 | 9.7 | 0.00 | 2.01 | 1.14 | 51 | 1014.3 |
| 20260506193522 | 15 | 348 | 3.2 | 9.7 | 0.00 | 2.01 | 1.14 | 54 | 1014.1 |
| 20260506193001 | 15 | 356 | 4.8 | 14.5 | 0.00 | 2.06 | 1.14 | 53 | 1014.1 |
| 20260506192501 | 15 | 356 | 4.8 | 14.5 | 0.00 | 2.08 | 1.14 | 48 | 1014.0 |
| 20260506192001 | 15 | 357 | 4.8 | 12.9 | 0.00 | 2.11 | 1.14 | 50 | 1013.8 |
| 20260506191501 | 15 | 8 | 4.8 | 19.3 | 0.00 | 2.16 | 1.14 | 52 | 1013.8 |
| 20260506191002 | 15 | 13 | 6.4 | 19.3 | 0.00 | 2.21 | 1.14 | 51 | 1013.7 |
| 20260506190501 | 15 | 15 | 4.8 | 19.3 | 0.00 | 2.29 | 1.14 | 53 | 1013.8 |
| 20260506190001 | 16 | 6 | 3.2 | 9.7 | 0.00 | 2.31 | 1.14 | 50 | 1013.9 |
| 20260506185502 | 16 | 360 | 4.8 | 14.5 | 0.00 | 2.31 | 1.14 | 50 | 1013.8 |
| 20260506185001 | 15 | 356 | 4.8 | 14.5 | 0.00 | 2.31 | 1.14 | 50 | 1013.7 |
| 20260506184501 | 16 | 359 | 6.4 | 19.3 | 0.00 | 2.31 | 1.14 | 50 | 1013.9 |
| 20260506184023 | 16 | 3 | 4.8 | 19.3 | 0.00 | 2.31 | 1.14 | 49 | 1013.7 |
| 20260506183501 | 16 | 356 | 4.8 | 16.1 | 0.00 | 2.31 | 1.14 | 48 | 1013.8 |
| 20260506183001 | 16 | 351 | 4.8 | 16.1 | 0.00 | 2.31 | 1.14 | 49 | 1013.6 |
| 20260506182502 | 16 | 3 | 4.8 | 17.7 | 0.00 | 2.31 | 1.14 | 50 | 1013.7 |
| 20260506182002 | 16 | 351 | 3.2 | 17.7 | 0.00 | 2.31 | 1.14 | 51 | 1013.7 |
| 20260506181501 | 16 | 309 | 3.2 | 6.4 | 0.00 | 2.31 | 1.14 | 49 | 1013.6 |
| 20260506181001 | 16 | 344 | 4.8 | 9.7 | 0.00 | 2.31 | 1.14 | 53 | 1013.7 |
| 20260506180502 | 16 | 359 | 6.4 | 17.7 | 0.00 | 2.31 | 1.14 | 54 | 1013.7 |
| 20260506180001 | 15 | 360 | 4.8 | 17.7 | 0.00 | 2.31 | 1.14 | 55 | 1013.9 |
| 20260506175501 | 16 | 334 | 3.2 | 14.5 | 0.00 | 2.31 | 1.14 | 51 | 1014.0 |
| 20260506175002 | 16 | 346 | 3.2 | 12.9 | 0.00 | 2.31 | 1.14 | 54 | 1014.0 |
| 20260506174501 | 16 | 26 | 4.8 | 11.3 | 0.00 | 2.31 | 1.14 | 53 | 1014.0 |
| 20260506174002 | 15 | 25 | 3.2 | 12.9 | 0.00 | 2.31 | 1.14 | 55 | 1014.0 |
| 20260506173502 | 15 | 360 | 3.2 | 16.1 | 0.00 | 2.31 | 1.14 | 55 | 1014.1 |
| 20260506173002 | 15 | 322 | 3.2 | 16.1 | 0.00 | 2.31 | 1.14 | 56 | 1014.2 |
| 20260506172501 | 15 | 318 | 3.2 | 8.0 | 0.00 | 2.31 | 1.14 | 57 | 1014.2 |
| 20260506172001 | 15 | 10 | 4.8 | 16.1 | 0.00 | 2.31 | 1.14 | 53 | 1014.1 |
| 20260506171502 | 15 | 18 | 4.8 | 16.1 | 0.00 | 2.31 | 1.14 | 54 | 1014.2 |
| 20260506171002 | 15 | 354 | 3.2 | 6.4 | 0.00 | 2.31 | 1.14 | 59 | 1014.2 |
| 20260506170502 | 14 | 302 | 3.2 | 9.7 | 0.00 | 2.31 | 1.14 | 59 | 1014.3 |
| 20260506170022 | 14 | 348 | 4.8 | 9.7 | 0.00 | 2.31 | 1.14 | 57 | 1014.4 |
| 20260506165501 | 14 | 7 | 4.8 | 9.7 | 0.00 | 2.31 | 1.14 | 57 | 1014.4 |
| 20260506165023 | 14 | 350 | 3.2 | 9.7 | 0.00 | 2.31 | 1.14 | 57 | 1014.3 |
| 20260506164523 | 14 | 347 | 3.2 | 12.9 | 0.00 | 2.31 | 1.14 | 58 | 1014.5 |
| 20260506164001 | 14 | 360 | 3.2 | 12.9 | 0.00 | 2.31 | 1.14 | 55 | 1014.5 |
| 20260506163501 | 14 | 1 | 3.2 | 9.7 | 0.00 | 2.31 | 1.14 | 59 | 1014.3 |
| 20260506163002 | 14 | 5 | 4.8 | 14.5 | 0.00 | 2.31 | 1.14 | 57 | 1014.3 |
| 20260506162502 | 14 | 3 | 4.8 | 14.5 | 0.00 | 2.31 | 1.14 | 60 | 1014.3 |
| 20260506162002 | 13 | 340 | 4.8 | 14.5 | 0.00 | 2.31 | 1.14 | 60 | 1014.3 |
| 20260506161501 | 13 | 5 | 4.8 | 14.5 | 0.00 | 2.31 | 1.14 | 59 | 1014.5 |
| 20260506161002 | 13 | 12 | 4.8 | 14.5 | 0.00 | 2.31 | 1.14 | 58 | 1014.5 |
| 20260506160522 | 13 | 358 | 3.2 | 14.5 | 0.00 | 2.31 | 1.14 | 61 | 1014.4 |
| 20260506160001 | 13 | 1 | 3.2 | 11.3 | 0.00 | 2.31 | 1.14 | 63 | 1014.4 |
| 20260506155502 | 13 | 356 | 4.8 | 11.3 | 0.00 | 2.31 | 1.14 | 62 | 1014.2 |
| 20260506155002 | 13 | 345 | 4.8 | 11.3 | 0.00 | 2.31 | 1.14 | 63 | 1014.1 |
| 20260506154502 | 12 | 334 | 3.2 | 11.3 | 0.00 | 2.31 | 1.14 | 64 | 1014.0 |
| 20260506154001 | 12 | 357 | 3.2 | 11.3 | 0.00 | 2.31 | 1.14 | 63 | 1014.1 |
| 20260506153501 | 12 | 6 | 4.8 | 12.9 | 0.00 | 2.31 | 1.14 | 65 | 1013.9 |
| 20260506153002 | 12 | 2 | 4.8 | 14.5 | 0.00 | 2.31 | 1.14 | 65 | 1014.0 |
| 20260506152502 | 12 | 347 | 3.2 | 14.5 | 0.00 | 2.31 | 1.14 | 65 | 1014.1 |
| 20260506152001 | 12 | 343 | 3.2 | 8.0 | 0.00 | 2.31 | 1.14 | 65 | 1014.4 |
| 20260506151501 | 12 | 345 | 3.2 | 8.0 | 0.00 | 2.31 | 1.14 | 66 | 1014.6 |
| 20260506151002 | 12 | 352 | 3.2 | 9.7 | 0.00 | 2.31 | 1.14 | 66 | 1014.5 |
| 20260506150502 | 11 | 7 | 3.2 | 11.3 | 0.00 | 2.31 | 1.14 | 68 | 1014.1 |
| 20260506150001 | 11 | 14 | 4.8 | 12.9 | 0.00 | 2.31 | 1.14 | 69 | 1013.7 |
| 20260506145501 | 11 | 6 | 3.2 | 12.9 | 0.00 | 2.31 | 1.14 | 70 | 1013.7 |
| 20260506145002 | 11 | 344 | 3.2 | 8.0 | 0.00 | 2.31 | 1.14 | 68 | 1013.7 |